Regional Weather Roundup
Issued by NWS

Home | Current Version | Previous Version | Graphics & Text | Print | Product List | Glossary On
Versions: 1 2 3 4 5 6 7 8 9 10 11 12 13 14 15 16 17 18 19 20 21 22 23 24 25 26 27 28 29 30 31 32 33 34 35 36 37 38 39 40 41 42 43 44 45 46 47 48 49 50
000
ASUS43 KFSD 292102
RWRSD

WEATHER ROUNDUP FOR SOUTH DAKOTA
NATIONAL WEATHER SERVICE SIOUX FALLS SD
400 PM CDT FRI JUL 29 2016

NOTE: "FAIR" INDICATES FEW OR NO CLOUDS BELOW 12,000 FEET WITH NO
SIGNIFICANT WEATHER AND/OR OBSTRUCTIONS TO VISIBILITY.


SDZ001>005-009-010-012>017-292200-
NORTHWEST AND NORTH CENTRAL SOUTH DAKOTA

CITY           SKY/WX    TMP DP  RH WIND       PRES   REMARKS
BUFFALO          N/A     80  53  39 E3        29.98F
FAITH            N/A     80  53  39 VRB6      30.03F
MOBRIDGE       PTSUNNY   82  59  45 SE14      30.01F
$$

SDZ012>016-024>037-041>051-057-063-072>074-292200-
SOUTHWEST AND SOUTH CENTRAL SOUTH DAKOTA

CITY           SKY/WX    TMP DP  RH WIND       PRES   REMARKS
RAPID CTY ARPT MOSUNNY   80  55  42 SW9       30.05F
PIERRE         MOSUNNY   82  56  40 S14G20    30.01F
CUSTER         CLOUDY    71  56  58 NE13G24   30.16F
ELLSWORTH AFB  CLOUDY    79  56  44 S8        30.04F
PHILIP         PTSUNNY   80  59  48 SE9G18    30.02F
PINE RIDGE     PTSUNNY   84  56  38 E8        30.04F
WINNER         FAIR      80  58  46 SE8       30.05F
$$

SDZ004>011-016>023-039-040-292200-
NORTHEAST SOUTH DAKOTA

CITY           SKY/WX    TMP DP  RH WIND       PRES   REMARKS
ABERDEEN       NOT AVBL
WATERTOWN      PTSUNNY   77  54  44 SE5       30.07F
BROOKINGS      MOSUNNY   77  55  46 NE9       30.07F
SISSETON         N/A     75  58  55 W3        30.04F
$$

SDZ017-020-022-023-036>040-048>070-292200-
SOUTHEAST SOUTH DAKOTA

CITY           SKY/WX    TMP DP  RH WIND       PRES   REMARKS
SIOUX FALLS    MOSUNNY   79  57  46 NE12      30.05F
HURON          SUNNY     82  54  37 SE6       30.04F
CHAMBERLAIN    MOSUNNY   84  57  40 S5        30.05F
MITCHELL       SUNNY     82  54  37 E6        30.05F
YANKTON        SUNNY     79  55  44 E9        30.03F
$$

ABBREVIATIONS USED IN REMARKS
   TC - TEMPERATURE IN CELSIUS
  WCI - WIND CHILL INDEX
   HX - HEAT INDEX
  VSB - VISIBILITY





USA.gov is the U.S. government's official web portal to all federal, state and local government web resources and services.